Погода в Малоказаккулове

Россия / Республика Башкортостан     54°03′19″N   58°56′42″E
темп.,
°C
ветер,
м/с
пор.,
м/с
влажн.,
%
обл.,
%
осадки,
мм/ч
давл.,
гПа
погр.,
м
22 апреля, чт
чт2223:00+5ююз345244 0.0 103346
02:00+3юз336085 0.0 103437
05:00+2ююз3364100 0.0 103552
08:00+4ю3860100 0.0 1035302
11:00+5ю4858100 0.3 1035511
14:00+8ю6844100 0.0 1034946
17:00+9ю6837100 0.0 10331211
20:00+6ю5853100 0.0 1033500
23 апреля, пт
пт2323:00+5ю4963100 0.0 1034473
02:00+3ююз3985100 0.4 1033537
05:00+3ююв3991100 0.5 1033696
08:00+3ююз3994100 0.1 1033498
11:00+9ю6861100 0.1 10311019
14:00+12ююз6841100 0.0 10292014
17:00+12ю6741100 0.0 10281950
20:00+10ююв5953100 0.0 1028359
24 апреля, сб
сб2423:00+7ююз3675100 0.1 1028847
02:00+6юв2592100 1.7 1026475
05:00+6юв5887100 2.4 1025588
08:00+6юв61082100 0.1 1023921
11:00+7юв71069100 0.6 10211167
14:00+10юв81045100 0.0 10171965
17:00+5ююв7977100 0.1 1018926
20:00+4юв4895100 1.1 1018669
25 апреля, вс
вс2523:00+3юв4697100 1.8 1017748
02:00+3юв1497100 0.8 1016657
05:00+3ююв2497100 0.9 1016522
08:00+3ююв2497100 0.1 1016448
11:00+4ююз4592100 0.2 1016442
14:00+8ююз5117899 0.3 10141121
17:00+8зюз611725 2.0 10151033
20:00+6з47690 0.0 1017159
26 апреля, пн
пн2623:00+4зюз22795 0.0 101910
02:00+3юз3382100 0.0 102059
05:00+3ююз2388100 0.0 102059
08:00+5юз2479100 0.0 1020199
11:00+8юз5860100 0.0 10181233
14:00+8юз5671100 0.3 10181066
17:00+5сз1190100 3.3 1018470
20:00+4ссв2395100 5.5 1015317